Weather reports worldwide

Advertisment
Vigo Peinador, Spain (8045): temperature & dewpoint: 03.12.2019 21:00:00 - 09.12.2019 21:00:00 (CET)Vigo Peinador, Spain (8045): wind speed: 03.12.2019 21:00:00 - 09.12.2019 21:00:00 (CET)Vigo Peinador, Spain (8045): wind direction: 03.12.2019 21:00:00 - 09.12.2019 21:00:00 (CET)Vigo Peinador, Spain (8045): reduced air pressure: 03.12.2019 21:00:00 - 09.12.2019 21:00:00 (CET)Vigo Peinador, Spain (8045): visibility: 03.12.2019 21:00:00 - 09.12.2019 21:00:00 (CET)
Date & Time tt [°C] td [°C] ff [km/h] ff [kn] dd ppp [hPa] vv [km]
09.12.2019 21:00:00 7,8 7,8 2 1 - 1033,3 10
09.12.2019 20:00:00 7,9 7,6 0 0 N 1033,1 10
09.12.2019 19:00:00 8,5 8,5 4 2 W 1033,0 10
09.12.2019 18:00:00 9,9 9,9 8 4 W 1032,5 10
09.12.2019 17:00:00 10,2 9,4 2 1 - 1032,3 10
09.12.2019 16:00:00 11,6 10,3 4 2 - 1032,1 10
09.12.2019 15:00:00 11,1 10,1 4 2 E 1032,4 10
09.12.2019 14:00:00 10,6 9,3 4 2 SSE 1033,1 10
09.12.2019 13:00:00 10,0 10,0 9 5 E 1033,7 10
09.12.2019 12:00:00 8,1 7,8 11 6 SSW 1034,8 10
09.12.2019 11:00:00 8,0 7,2 4 2 - 1034,7 10
09.12.2019 10:00:00 6,4 6,4 8 4 WNW 1034,0 15
09.12.2019 09:00:00 4,7 4,7 11 6 SW 1033,4 10
09.12.2019 08:00:00 5,4 5,4 8 4 WSW 1033,3 0,5
09.12.2019 07:00:00 6,9 6,3 4 2 NNW 1032,7 15
09.12.2019 06:00:00 7,0 6,7 9 5 N 1032,5 10
09.12.2019 05:00:00 5,8 5,8 4 2 ENE 1032,5 10
09.12.2019 04:00:00 6,1 6,1 8 4 NNE 1032,4 10
09.12.2019 03:00:00 6,2 6,2 4 2 - 1031,7 10
09.12.2019 02:00:00 6,6 6,6 8 4 N 1031,6 0,8
09.12.2019 01:00:00 7,0 7,0 8 4 NNE 1031,7 10
09.12.2019 00:00:00 8,0 8,0 8 4 N 1031,2 10
08.12.2019 23:00:00 8,2 8,2 11 6 NNE 1030,7 10
08.12.2019 22:00:00 9,3 9,3 13 7 NNE 1030,4 12
08.12.2019 21:00:00 9,3 9,3 8 4 N 1029,6 10
08.12.2019 20:00:00 10,4 10,4 8 4 NNE 1028,8 7
08.12.2019 19:00:00 11,7 11,7 8 4 NNE 1028,0 8
08.12.2019 18:00:00 12,5 12,5 4 2 - 1027,2 0,1
08.12.2019 17:00:00 12,6 12,6 8 4 W 1026,6 0,2
08.12.2019 16:00:00 13,0 13,0 5 3 NNW 1025,9 2,2
08.12.2019 15:00:00 12,6 12,6 4 2 SSW 1025,9 0,3
08.12.2019 14:00:00 12,5 12,5 4 2 S 1025,9 0,5
08.12.2019 13:00:00 11,9 11,9 9 5 SSW 1026,3 0,3
08.12.2019 12:00:00 11,7 11,7 13 7 SSW 1026,6 0,6
08.12.2019 11:00:00 11,3 11,3 11 6 SSW 1026,0 0,2
08.12.2019 10:00:00 11,0 11,0 15 8 S 1025,4 0,4
08.12.2019 09:00:00 10,9 10,9 11 6 SSW 1024,7 -
08.12.2019 08:00:00 10,9 10,9 11 6 SSW 1024,7 0,1
08.12.2019 07:00:00 10,8 10,8 11 6 SSW 1024,5 0,1
08.12.2019 06:00:00 10,8 10,8 11 6 S 1024,7 0,1
08.12.2019 05:00:00 10,7 10,7 9 5 SSW 1024,8 0,2
08.12.2019 04:00:00 11,0 11,0 11 6 S - 0,1
08.12.2019 03:00:00 10,6 10,6 13 7 SSW 1025,1 0,1
08.12.2019 02:00:00 10,6 10,6 9 5 SSW 1025,4 -
08.12.2019 01:00:00 10,6 10,6 9 5 S 1025,6 0,1
08.12.2019 00:00:00 10,6 10,6 8 4 SSW 1025,7 0,1
07.12.2019 23:00:00 10,7 10,7 13 7 S 1025,3 -
07.12.2019 22:00:00 10,5 10,5 9 5 SSW 1025,3 -
07.12.2019 21:00:00 10,6 10,6 11 6 S 1025,2 0,1
07.12.2019 20:00:00 10,6 10,6 13 7 S 1025,1 0,1
07.12.2019 19:00:00 10,0 10,0 11 6 SW - 0,3
07.12.2019 18:00:00 10,4 10,4 9 5 SSW 1024,9 1,0
07.12.2019 17:00:00 10,9 10,9 9 5 SW 1024,5 3,0
07.12.2019 16:00:00 10,4 10,4 11 6 SSW 1024,2 4,0
07.12.2019 15:00:00 10,1 10,1 15 8 SSW 1024,4 2,0
07.12.2019 14:00:00 9,8 9,8 13 7 SSW 1025,0 3,0
07.12.2019 13:00:00 8,5 8,5 9 5 SSW 1025,8 0,8
07.12.2019 12:00:00 6,9 6,9 13 7 SW 1026,4 0,1
07.12.2019 11:00:00 6,6 6,6 13 7 SSW 1026,5 0,4
07.12.2019 10:00:00 5,1 5,1 13 7 SW 1026,1 -
07.12.2019 09:00:00 5,7 5,7 13 7 SW 1025,6 4,0
07.12.2019 08:00:00 5,7 5,7 9 5 SW 1025,2 0,5
07.12.2019 07:00:00 6,1 6,1 9 5 WSW 1024,7 0,5
07.12.2019 06:00:00 6,3 6,3 9 5 SW 1024,6 0,2
07.12.2019 05:00:00 7,0 7,0 4 2 W 1024,6 2,0
07.12.2019 04:00:00 7,4 7,4 5 3 WSW 1024,6 5
07.12.2019 03:00:00 6,4 6,4 9 5 SW 1024,7 -
07.12.2019 02:00:00 7,7 7,7 8 4 WSW 1024,7 3,0
07.12.2019 01:00:00 6,8 6,8 5 3 W 1025,2 3,0
07.12.2019 00:00:00 7,7 7,7 2 1 NNW 1025,3 5
06.12.2019 23:00:00 7,8 7,8 4 2 NW 1025,1 6
06.12.2019 22:00:00 7,6 7,6 5 3 WSW 1025,1 6
06.12.2019 21:00:00 8,2 8,2 4 2 - 1024,5 10
06.12.2019 20:00:00 8,4 8,4 9 5 NW 1024,0 8
06.12.2019 19:00:00 8,8 8,8 4 2 - 1023,7 9
06.12.2019 18:00:00 10,6 9,6 4 2 - 1023,4 10
06.12.2019 17:00:00 12,0 9,1 2 1 - 1023,0 10
06.12.2019 16:00:00 13,7 9,1 8 4 S 1022,4 10
06.12.2019 15:00:00 13,2 8,8 4 2 - 1023,0 10
06.12.2019 14:00:00 11,7 8,9 4 2 ENE 1023,9 10
06.12.2019 13:00:00 8,4 8,0 11 6 SW 1024,6 20
06.12.2019 12:00:00 8,8 7,6 9 5 SW 1025,0 10
06.12.2019 11:00:00 9,3 8,4 9 5 S 1025,2 10
06.12.2019 10:00:00 7,0 7,0 11 6 SW 1024,8 20
06.12.2019 09:00:00 6,1 6,1 13 7 SW 1024,1 10
06.12.2019 08:00:00 6,7 6,7 11 6 SW 1023,7 10
06.12.2019 07:00:00 6,9 6,9 8 4 WSW 1023,7 35
06.12.2019 06:00:00 6,5 6,5 13 7 SW 1023,3 10
06.12.2019 05:00:00 6,7 6,7 13 7 SW 1023,1 10
06.12.2019 04:00:00 7,0 7,0 13 7 SSW 1023,5 35
06.12.2019 03:00:00 7,0 7,0 15 8 SSW 1023,2 10
06.12.2019 02:00:00 7,5 7,5 5 3 WSW 1023,4 10
06.12.2019 01:00:00 8,2 7,8 8 4 SSW 1023,6 10
06.12.2019 00:00:00 8,7 8,2 11 6 SW 1023,1 10
05.12.2019 23:00:00 7,5 7,5 2 1 WNW 1023,3 10
05.12.2019 22:00:00 8,6 7,7 0 0 N 1022,5 35
05.12.2019 21:00:00 9,8 8,6 4 2 NE 1022,3 10
05.12.2019 20:00:00 9,3 7,9 2 1 - 1021,7 10
05.12.2019 19:00:00 9,7 9,0 4 2 - 1021,3 10
05.12.2019 18:00:00 11,8 8,6 2 1 - 1020,7 10
05.12.2019 17:00:00 14,7 8,4 2 1 SSW 1020,2 10
05.12.2019 16:00:00 14,5 7,9 5 3 S 1019,8 35
05.12.2019 15:00:00 14,3 8,1 8 4 - 1020,1 10
05.12.2019 14:00:00 14,2 8,3 8 4 ENE 1020,6 10
05.12.2019 13:00:00 13,2 7,3 8 4 ENE 1021,3 35
05.12.2019 12:00:00 12,1 6,4 4 2 - 1021,7 10
05.12.2019 11:00:00 8,6 5,0 5 3 - 1021,5 10
05.12.2019 10:00:00 8,7 5,1 2 1 S 1020,2 35
05.12.2019 09:00:00 5,8 4,0 4 2 NNE 1019,6 10
05.12.2019 08:00:00 6,8 4,8 5 3 NE 1019,1 10
05.12.2019 07:00:00 7,0 4,8 5 3 ENE 1018,6 10
05.12.2019 06:00:00 7,4 4,7 11 6 NE 1018,4 10
05.12.2019 05:00:00 5,7 4,5 11 6 NNE 1018,7 10
05.12.2019 04:00:00 5,6 3,5 2 1 - 1018,3 10
05.12.2019 03:00:00 5,5 3,3 8 4 NE 1018,0 10
05.12.2019 02:00:00 5,5 2,7 11 6 N 1018,0 10
05.12.2019 01:00:00 6,1 0,7 4 2 NNE 1018,2 30
05.12.2019 00:00:00 5,8 1,9 4 2 - 1017,9 10
04.12.2019 23:00:00 5,6 3,4 13 7 NNE 1017,9 10
04.12.2019 22:00:00 6,4 3,7 8 4 N 1017,6 10
04.12.2019 21:00:00 6,7 4,4 11 6 NNE 1016,7 10
04.12.2019 20:00:00 8,2 3,7 11 6 N 1016,0 10
04.12.2019 19:00:00 8,3 5,2 9 5 N 1015,3 10
04.12.2019 18:00:00 8,9 4,3 9 5 N 1014,5 10
04.12.2019 17:00:00 10,0 3,7 8 4 NNE 1014,2 10
04.12.2019 16:00:00 10,6 1,9 8 4 NNE 1013,7 30
04.12.2019 15:00:00 11,1 4,0 8 4 NE 1013,7 10
04.12.2019 14:00:00 10,4 2,4 8 4 NE 1014,0 10
04.12.2019 13:00:00 9,4 3,1 4 2 - 1014,4 10
04.12.2019 12:00:00 6,8 3,2 4 2 - 1015,2 10
04.12.2019 11:00:00 4,1 2,2 8 4 SSW 1015,1 10
04.12.2019 10:00:00 1,9 1,9 8 4 SW 1015,0 9
04.12.2019 09:00:00 1,6 1,6 9 5 WSW 1014,5 10
04.12.2019 08:00:00 1,8 1,5 8 4 WSW 1014,1 10
04.12.2019 07:00:00 2,4 1,2 8 4 S 1013,9 10
04.12.2019 06:00:00 1,8 1,8 11 6 SW 1013,9 10
04.12.2019 05:00:00 2,2 2,2 11 6 SW 1014,3 10
04.12.2019 04:00:00 3,1 2,5 4 2 - 1014,3 10
04.12.2019 03:00:00 3,4 3,0 11 6 WSW 1014,6 10
04.12.2019 02:00:00 3,5 3,1 13 7 SW 1015,0 10
04.12.2019 01:00:00 3,9 3,9 11 6 WSW 1015,2 15
04.12.2019 00:00:00 4,8 4,2 5 3 SW 1015,5 10
03.12.2019 23:00:00 4,9 3,7 8 4 SW 1015,6 10
03.12.2019 22:00:00 5,1 4,7 2 1 - 1015,6 10
03.12.2019 21:00:00 5,5 4,8 5 3 WSW 1015,6 10

tt = temperature
td = dewpoint
ff = wind speed
dd = wind direction
ppp = reduced air pressure
vv = visibility

Next stations